Time,TemperatureF,DewpointF,PressureIn,WindDirection,WindDirectionDegrees,WindSpeedMPH,WindSpeedGustMPH,Humidity,HourlyPrecipIn,Conditions,Clouds,dailyrainin,SoftwareType,DateUTC
2013-08-17 00:03:00,79.3,47.7,29.49,WSW,238,4.0,13.0,33,0.00,,,0.00,meteohub,2013-08-17 07:03:00,
2013-08-17 00:08:00,79.3,46.9,29.49,WSW,258,7.0,13.0,32,0.00,,,0.00,meteohub,2013-08-17 07:08:00,
2013-08-17 00:13:00,79.2,45.9,29.49,West,267,3.0,15.0,31,0.00,,,0.00,meteohub,2013-08-17 07:13:00,
2013-08-17 00:18:00,79.0,45.0,29.49,WNW,294,11.0,15.0,30,0.00,,,0.00,meteohub,2013-08-17 07:18:00,
2013-08-17 00:23:00,78.6,44.6,29.49,WNW,285,4.0,15.0,30,0.00,,,0.00,meteohub,2013-08-17 07:23:00,
2013-08-17 00:28:00,78.6,44.6,29.49,WSW,246,4.0,15.0,30,0.00,,,0.00,meteohub,2013-08-17 07:28:00,
2013-08-17 00:33:00,78.4,43.5,29.49,WNW,290,4.0,15.0,29,0.00,,,0.00,meteohub,2013-08-17 07:33:00,
2013-08-17 00:38:00,78.4,43.5,29.49,WNW,293,8.0,15.0,29,0.00,,,0.00,meteohub,2013-08-17 07:38:00,
2013-08-17 00:43:00,78.4,43.5,29.49,West,265,8.0,15.0,29,0.00,,,0.00,meteohub,2013-08-17 07:43:00,
2013-08-17 00:48:00,78.4,43.5,29.49,WSW,242,4.0,15.0,29,0.00,,,0.00,meteohub,2013-08-17 07:48:00,
2013-08-17 00:53:00,78.4,43.5,29.49,NW,317,11.0,15.0,29,0.00,,,0.00,meteohub,2013-08-17 07:53:00,
2013-08-17 00:58:00,78.4,43.5,29.49,WSW,254,11.0,15.0,29,0.00,,,0.00,meteohub,2013-08-17 07:58:00,
2013-08-17 01:03:00,78.4,43.5,29.48,WSW,246,5.0,15.0,29,0.00,,,0.00,meteohub,2013-08-17 08:03:00,
2013-08-17 01:08:00,78.3,44.2,29.48,West,269,5.0,19.0,30,0.00,,,0.00,meteohub,2013-08-17 08:08:00,
2013-08-17 01:13:00,78.3,44.2,29.48,WNW,282,5.0,19.0,30,0.00,,,0.00,meteohub,2013-08-17 08:13:00,
2013-08-17 01:18:00,78.4,44.4,29.48,West,275,6.0,19.0,30,0.00,,,0.00,meteohub,2013-08-17 08:18:00,
2013-08-17 01:23:00,78.3,45.1,29.48,WSW,257,8.0,19.0,31,0.00,,,0.00,meteohub,2013-08-17 08:23:00,
2013-08-17 01:28:00,78.3,46.0,29.48,WSW,256,9.0,19.0,32,0.00,,,0.00,meteohub,2013-08-17 08:28:00,
2013-08-17 01:33:00,78.3,46.0,29.48,NW,306,9.0,19.0,32,0.00,,,0.00,meteohub,2013-08-17 08:33:00,
2013-08-17 01:38:00,78.4,46.2,29.48,SW,236,8.0,17.0,32,0.00,,,0.00,meteohub,2013-08-17 08:38:00,
2013-08-17 01:43:00,78.3,45.1,29.48,West,267,9.0,17.0,31,0.00,,,0.00,meteohub,2013-08-17 08:43:00,
2013-08-17 01:48:00,78.4,45.3,29.48,WSW,244,7.0,17.0,31,0.00,,,0.00,meteohub,2013-08-17 08:48:00,
2013-08-17 01:53:00,78.3,45.1,29.48,WSW,249,7.0,17.0,31,0.00,,,0.00,meteohub,2013-08-17 08:53:00,
2013-08-17 01:58:00,78.3,47.7,29.48,SW,224,7.0,17.0,34,0.00,,,0.00,meteohub,2013-08-17 08:58:00,
2013-08-17 02:03:00,79.2,49.1,29.48,SW,229,4.0,17.0,35,0.00,,,0.00,meteohub,2013-08-17 09:03:00,
2013-08-17 02:08:00,80.4,50.2,29.47,WSW,242,5.0,17.0,35,0.00,,,0.00,meteohub,2013-08-17 09:08:00,
2013-08-17 02:13:00,81.3,50.2,29.47,SW,235,8.0,12.0,34,0.00,,,0.00,meteohub,2013-08-17 09:13:00,
2013-08-17 02:18:00,81.7,50.5,29.46,WSW,240,9.0,12.0,34,0.00,,,0.00,meteohub,2013-08-17 09:18:00,
2013-08-17 02:23:00,81.3,50.2,29.46,SW,223,12.0,12.0,34,0.00,,,0.00,meteohub,2013-08-17 09:23:00,
2013-08-17 02:28:00,81.1,49.3,29.46,SW,224,8.0,12.0,33,0.00,,,0.00,meteohub,2013-08-17 09:28:00,
2013-08-17 02:33:00,81.1,49.3,29.46,WSW,242,6.0,12.0,33,0.00,,,0.00,meteohub,2013-08-17 09:33:00,
2013-08-17 02:38:00,81.1,50.2,29.46,SW,236,7.0,12.0,34,0.00,,,0.00,meteohub,2013-08-17 09:38:00,
2013-08-17 02:43:00,81.0,50.0,29.46,SW,228,3.0,12.0,34,0.00,,,0.00,meteohub,2013-08-17 09:43:00,
2013-08-17 02:48:00,81.0,50.0,29.45,SW,219,3.0,12.0,34,0.00,,,0.00,meteohub,2013-08-17 09:48:00,
2013-08-17 02:53:00,81.0,50.0,29.45,WNW,289,2.0,12.0,34,0.00,,,0.00,meteohub,2013-08-17 09:53:00,
2013-08-17 02:58:00,80.8,49.8,29.46,WNW,288,0.0,10.0,34,0.00,,,0.00,meteohub,2013-08-17 09:58:00,
2013-08-17 03:03:00,80.1,49.1,29.46,WNW,289,0.0,10.0,34,0.00,,,0.00,meteohub,2013-08-17 10:03:00,
2013-08-17 03:08:00,79.2,48.4,29.47,NE,37,1.0,10.0,34,0.00,,,0.00,meteohub,2013-08-17 10:08:00,
2013-08-17 03:13:00,78.1,48.2,29.47,NE,38,0.0,10.0,35,0.00,,,0.00,meteohub,2013-08-17 10:13:00,
2013-08-17 03:18:00,77.2,48.2,29.48,NE,38,2.0,10.0,36,0.00,,,0.00,meteohub,2013-08-17 10:18:00,
2013-08-17 03:23:00,76.6,49.1,29.48,NE,37,0.0,3.0,38,0.00,,,0.00,meteohub,2013-08-17 10:23:00,
2013-08-17 03:28:00,76.5,48.9,29.48,NE,37,0.0,3.0,38,0.00,,,0.00,meteohub,2013-08-17 10:28:00,
2013-08-17 03:33:00,76.1,49.3,29.48,NE,37,0.0,3.0,39,0.00,,,0.00,meteohub,2013-08-17 10:33:00,
2013-08-17 03:38:00,75.7,49.1,29.49,NE,37,0.0,3.0,39,0.00,,,0.00,meteohub,2013-08-17 10:38:00,
2013-08-17 03:43:00,75.6,49.5,29.49,NE,37,0.0,1.0,40,0.00,,,0.00,meteohub,2013-08-17 10:43:00,
2013-08-17 03:48:00,75.4,49.5,29.49,NE,37,0.0,1.0,40,0.00,,,0.00,meteohub,2013-08-17 10:48:00,
2013-08-17 03:53:00,75.0,49.1,29.49,NE,37,0.0,1.0,40,0.00,,,0.00,meteohub,2013-08-17 10:53:00,
2013-08-17 03:58:00,74.8,48.2,29.49,NE,37,0.0,1.0,39,0.00,,,0.00,meteohub,2013-08-17 10:58:00,
2013-08-17 04:03:00,74.7,48.7,29.49,NE,37,0.0,1.0,40,0.00,,,0.00,meteohub,2013-08-17 11:03:00,
2013-08-17 04:08:00,74.5,49.3,29.49,NE,37,0.0,0.0,41,0.00,,,0.00,meteohub,2013-08-17 11:08:00,
2013-08-17 04:13:00,73.9,48.7,29.49,NE,37,0.0,0.0,41,0.00,,,0.00,meteohub,2013-08-17 11:13:00,
2013-08-17 04:19:00,73.6,49.1,29.49,NE,37,0.0,0.0,42,0.00,,,0.00,meteohub,2013-08-17 11:19:00,
2013-08-17 04:24:00,73.6,49.1,29.49,NE,37,0.0,0.0,42,0.00,,,0.00,meteohub,2013-08-17 11:24:00,
2013-08-17 04:29:00,73.4,48.9,29.49,NE,37,0.0,0.0,42,0.00,,,0.00,meteohub,2013-08-17 11:29:00,
2013-08-17 04:34:00,73.8,49.3,29.49,NNE,33,0.0,0.0,42,0.00,,,0.00,meteohub,2013-08-17 11:34:00,
2013-08-17 04:39:00,74.5,50.5,29.48,NNE,33,3.0,0.0,43,0.00,,,0.00,meteohub,2013-08-17 11:39:00,
2013-08-17 04:44:00,75.9,50.5,29.47,SW,223,2.0,0.0,41,0.00,,,0.00,meteohub,2013-08-17 11:44:00,
2013-08-17 04:49:00,76.5,50.4,29.47,SW,223,1.0,0.0,40,0.00,,,0.00,meteohub,2013-08-17 11:49:00,
2013-08-17 04:54:00,76.5,51.1,29.47,SW,223,3.0,8.0,41,0.00,,,0.00,meteohub,2013-08-17 11:54:00,
2013-08-17 04:59:00,76.3,50.9,29.47,SW,223,2.0,8.0,41,0.00,,,0.00,meteohub,2013-08-17 11:59:00,
2013-08-17 05:04:00,75.9,50.5,29.47,SW,223,0.0,8.0,41,0.00,,,0.00,meteohub,2013-08-17 12:04:00,
2013-08-17 05:06:00,75.9,50.5,29.47,SW,223,0.0,8.0,41,0.00,,,0.00,meteohub,2013-08-17 12:06:00,
2013-08-17 05:11:00,75.7,50.4,29.47,SW,223,0.0,8.0,41,0.00,,,0.00,meteohub,2013-08-17 12:11:00,
2013-08-17 05:16:00,75.6,50.2,29.48,SW,223,0.0,3.0,41,0.00,,,0.00,meteohub,2013-08-17 12:16:00,
2013-08-17 05:21:00,75.4,50.0,29.48,SW,223,1.0,3.0,41,0.00,,,0.00,meteohub,2013-08-17 12:21:00,
2013-08-17 05:26:00,75.0,49.6,29.48,SW,223,0.0,3.0,41,0.00,,,0.00,meteohub,2013-08-17 12:26:00,
2013-08-17 05:31:00,74.5,49.8,29.49,SW,223,0.0,3.0,42,0.00,,,0.00,meteohub,2013-08-17 12:31:00,
2013-08-17 05:36:00,73.9,49.5,29.49,SW,223,0.0,3.0,42,0.00,,,0.00,meteohub,2013-08-17 12:36:00,
2013-08-17 05:41:00,73.8,49.3,29.49,SW,223,0.0,2.0,42,0.00,,,0.00,meteohub,2013-08-17 12:41:00,
2013-08-17 05:46:00,73.9,49.5,29.49,SW,223,0.0,2.0,42,0.00,,,0.00,meteohub,2013-08-17 12:46:00,
2013-08-17 05:51:00,74.5,48.6,29.49,NW,313,1.0,2.0,40,0.00,,,0.00,meteohub,2013-08-17 12:51:00,
2013-08-17 05:56:00,75.4,47.3,29.49,NW,312,0.0,2.0,37,0.00,,,0.00,meteohub,2013-08-17 12:56:00,
2013-08-17 06:01:00,75.7,46.2,29.49,NW,312,3.0,5.0,35,0.00,,,0.00,meteohub,2013-08-17 13:01:00,
2013-08-17 06:06:00,75.7,46.2,29.49,NW,311,0.0,5.0,35,0.00,,,0.00,meteohub,2013-08-17 13:06:00,
2013-08-17 06:11:00,75.7,46.2,29.49,NW,311,0.0,5.0,35,0.00,,,0.00,meteohub,2013-08-17 13:11:00,
2013-08-17 06:16:00,75.7,46.9,29.49,NW,311,0.0,5.0,36,0.00,,,0.00,meteohub,2013-08-17 13:16:00,
2013-08-17 06:21:00,75.4,41.7,29.49,SSE,159,2.0,5.0,30,0.00,,,0.00,meteohub,2013-08-17 13:21:00,
2013-08-17 06:26:00,75.6,46.0,29.49,SSE,159,0.0,5.0,35,0.00,,,0.00,meteohub,2013-08-17 13:26:00,
2013-08-17 06:31:00,75.4,44.2,29.50,SSE,159,2.0,6.0,33,0.00,,,0.00,meteohub,2013-08-17 13:31:00,
2013-08-17 06:36:00,75.7,43.7,29.50,South,183,0.0,6.0,32,0.00,,,0.00,meteohub,2013-08-17 13:36:00,
2013-08-17 06:41:00,76.3,45.9,29.49,South,182,1.0,6.0,34,0.00,,,0.00,meteohub,2013-08-17 13:41:00,
2013-08-17 06:46:00,77.2,46.6,29.49,SSW,199,1.0,6.0,34,0.00,,,0.00,meteohub,2013-08-17 13:46:00,
2013-08-17 06:51:00,77.9,45.7,29.49,SSW,201,1.0,6.0,32,0.00,,,0.00,meteohub,2013-08-17 13:51:00,
2013-08-17 06:56:00,78.3,45.1,29.49,SSW,195,1.0,6.0,31,0.00,,,0.00,meteohub,2013-08-17 13:56:00,
2013-08-17 07:01:00,78.3,46.8,29.49,SSW,195,0.0,6.0,33,0.00,,,0.00,meteohub,2013-08-17 14:01:00,
2013-08-17 07:06:00,78.1,47.5,29.49,SSW,195,0.0,6.0,34,0.00,,,0.00,meteohub,2013-08-17 14:06:00,
2013-08-17 07:11:00,77.5,47.7,29.49,SSW,195,2.0,6.0,35,0.00,,,0.00,meteohub,2013-08-17 14:11:00,
2013-08-17 07:16:00,76.8,47.8,29.50,SSW,194,0.0,6.0,36,0.00,,,0.00,meteohub,2013-08-17 14:16:00,
2013-08-17 07:21:00,76.5,48.2,29.50,SSW,194,0.0,6.0,37,0.00,,,0.00,meteohub,2013-08-17 14:21:00,
2013-08-17 07:26:00,76.1,48.0,29.50,SSW,194,0.0,6.0,37,0.00,,,0.00,meteohub,2013-08-17 14:26:00,
2013-08-17 07:32:00,75.9,47.8,29.51,SSW,194,1.0,2.0,37,0.00,,,0.00,meteohub,2013-08-17 14:32:00,
2013-08-17 07:37:00,75.9,46.2,29.51,SSE,166,3.0,3.0,35,0.00,,,0.00,meteohub,2013-08-17 14:37:00,
2013-08-17 07:42:00,76.1,43.3,29.51,East,92,2.0,2.0,31,0.00,,,0.00,meteohub,2013-08-17 14:42:00,
2013-08-17 07:47:00,76.5,43.5,29.50,East,92,0.0,2.0,31,0.00,,,0.00,meteohub,2013-08-17 14:47:00,
2013-08-17 07:52:00,76.6,44.6,29.50,East,92,1.0,2.0,32,0.00,,,0.00,meteohub,2013-08-17 14:52:00,
2013-08-17 07:57:00,77.2,45.9,29.50,East,92,2.0,2.0,33,0.00,,,0.00,meteohub,2013-08-17 14:57:00,
2013-08-17 08:02:00,77.5,46.2,29.50,East,92,3.0,5.0,33,0.00,,,0.00,meteohub,2013-08-17 15:02:00,
2013-08-17 08:07:00,78.3,48.4,29.50,East,92,1.0,5.0,35,0.00,,,0.00,meteohub,2013-08-17 15:07:00,
2013-08-17 08:12:00,78.6,47.1,29.50,East,92,2.0,5.0,33,0.00,,,0.00,meteohub,2013-08-17 15:12:00,
2013-08-17 08:17:00,79.3,47.7,29.49,East,92,0.0,5.0,33,0.00,,,0.00,meteohub,2013-08-17 15:17:00,
2013-08-17 08:22:00,80.1,46.8,29.49,East,92,0.0,5.0,31,0.00,,,0.00,meteohub,2013-08-17 15:22:00,
2013-08-17 08:27:00,81.0,47.5,29.48,East,92,3.0,5.0,31,0.00,,,0.00,meteohub,2013-08-17 15:27:00,
2013-08-17 08:32:00,82.0,46.6,29.48,East,92,5.0,5.0,29,0.00,,,0.00,meteohub,2013-08-17 15:32:00,
2013-08-17 08:37:00,82.8,46.4,29.47,East,81,1.0,5.0,28,0.00,,,0.00,meteohub,2013-08-17 15:37:00,
2013-08-17 08:42:00,83.3,46.8,29.47,East,81,2.0,6.0,28,0.00,,,0.00,meteohub,2013-08-17 15:42:00,
2013-08-17 08:47:00,84.0,47.5,29.47,East,81,2.0,6.0,28,0.00,,,0.00,meteohub,2013-08-17 15:47:00,
2013-08-17 08:52:00,84.7,48.0,29.47,East,80,2.0,3.0,28,0.00,,,0.00,meteohub,2013-08-17 15:52:00,
2013-08-17 08:57:00,85.3,47.5,29.46,East,80,1.0,3.0,27,0.00,,,0.00,meteohub,2013-08-17 15:57:00,
2013-08-17 09:02:00,85.5,47.7,29.46,ENE,60,1.0,5.0,27,0.00,,,0.00,meteohub,2013-08-17 16:02:00,
2013-08-17 09:07:00,85.6,47.8,29.46,ENE,60,1.0,5.0,27,0.00,,,0.00,meteohub,2013-08-17 16:07:00,
2013-08-17 09:12:00,86.0,47.1,29.45,ENE,59,2.0,5.0,26,0.00,,,0.00,meteohub,2013-08-17 16:12:00,
2013-08-17 09:17:00,86.2,47.3,29.45,ENE,59,3.0,4.0,26,0.00,,,0.00,meteohub,2013-08-17 16:17:00,
2013-08-17 09:22:00,86.5,47.7,29.45,ENE,59,3.0,4.0,26,0.00,,,0.00,meteohub,2013-08-17 16:22:00,
2013-08-17 09:27:00,86.7,47.7,29.45,ENE,57,3.0,4.0,26,0.00,,,0.00,meteohub,2013-08-17 16:27:00,
2013-08-17 09:32:00,86.9,47.8,29.45,ENE,63,5.0,7.0,26,0.00,,,0.00,meteohub,2013-08-17 16:32:00,
2013-08-17 09:37:00,87.1,49.1,29.44,ENE,60,1.0,7.0,27,0.00,,,0.00,meteohub,2013-08-17 16:37:00,
2013-08-17 09:42:00,87.6,49.5,29.44,ENE,61,1.0,8.0,27,0.00,,,0.00,meteohub,2013-08-17 16:42:00,
2013-08-17 09:47:00,88.3,48.0,29.44,ENE,78,3.0,8.0,25,0.00,,,0.00,meteohub,2013-08-17 16:47:00,
2013-08-17 09:52:00,88.9,51.6,29.44,WSW,241,5.0,8.0,28,0.00,,,0.00,meteohub,2013-08-17 16:52:00,
2013-08-17 09:57:00,89.1,50.7,29.44,WNW,294,2.0,12.0,27,0.00,,,0.00,meteohub,2013-08-17 16:57:00,
2013-08-17 10:02:00,89.2,50.9,29.44,West,262,8.0,12.0,27,0.00,,,0.00,meteohub,2013-08-17 17:02:00,
2013-08-17 10:07:00,89.4,50.0,29.43,WNW,294,3.0,12.0,26,0.00,,,0.00,meteohub,2013-08-17 17:07:00,
2013-08-17 10:12:00,89.8,50.4,29.43,West,269,10.0,14.0,26,0.00,,,0.00,meteohub,2013-08-17 17:12:00,
2013-08-17 10:17:00,89.8,50.4,29.43,SW,225,8.0,14.0,26,0.00,,,0.00,meteohub,2013-08-17 17:17:00,
2013-08-17 10:22:00,89.8,49.3,29.43,West,270,9.0,15.0,25,0.00,,,0.00,meteohub,2013-08-17 17:22:00,
2013-08-17 10:27:00,90.0,49.5,29.43,West,263,8.0,15.0,25,0.00,,,0.00,meteohub,2013-08-17 17:27:00,
2013-08-17 10:32:00,90.5,48.7,29.43,WSW,246,6.0,15.0,24,0.00,,,0.00,meteohub,2013-08-17 17:32:00,
2013-08-17 10:37:00,90.9,48.0,29.43,WNW,300,7.0,15.0,23,0.00,,,0.00,meteohub,2013-08-17 17:37:00,
2013-08-17 10:42:00,91.0,48.0,29.42,WNW,289,4.0,14.0,23,0.00,,,0.00,meteohub,2013-08-17 17:42:00,
2013-08-17 10:47:00,91.0,46.9,29.42,WSW,245,5.0,14.0,22,0.00,,,0.00,meteohub,2013-08-17 17:47:00,
2013-08-17 10:52:00,91.4,47.3,29.42,West,262,6.0,15.0,22,0.00,,,0.00,meteohub,2013-08-17 17:52:00,
2013-08-17 10:57:00,91.6,47.3,29.42,WNW,295,1.0,15.0,22,0.00,,,0.00,meteohub,2013-08-17 17:57:00,
2013-08-17 11:02:00,91.6,47.3,29.41,WNW,293,6.0,15.0,22,0.00,,,0.00,meteohub,2013-08-17 18:02:00,
2013-08-17 11:07:00,92.1,46.6,29.41,NW,304,7.0,15.0,21,0.00,,,0.00,meteohub,2013-08-17 18:07:00,
2013-08-17 11:12:00,92.5,46.9,29.41,WSW,238,8.0,15.0,21,0.00,,,0.00,meteohub,2013-08-17 18:12:00,
2013-08-17 11:17:00,92.7,46.9,29.40,NW,306,3.0,13.0,21,0.00,,,0.00,meteohub,2013-08-17 18:17:00,
2013-08-17 11:22:00,92.7,46.9,29.40,NW,304,6.0,13.0,21,0.00,,,0.00,meteohub,2013-08-17 18:22:00,
2013-08-17 11:27:00,92.8,47.1,29.40,WSW,255,1.0,13.0,21,0.00,,,0.00,meteohub,2013-08-17 18:27:00,
2013-08-17 11:32:00,93.0,47.3,29.40,WNW,287,3.0,13.0,21,0.00,,,0.00,meteohub,2013-08-17 18:32:00,
2013-08-17 11:37:00,93.7,46.6,29.39,NW,320,4.0,13.0,20,0.00,,,0.00,meteohub,2013-08-17 18:37:00,
2013-08-17 11:42:00,93.9,48.0,29.39,NW,317,4.0,8.0,21,0.00,,,0.00,meteohub,2013-08-17 18:42:00,
2013-08-17 11:47:00,94.6,47.3,29.39,NW,319,5.0,8.0,20,0.00,,,0.00,meteohub,2013-08-17 18:47:00,
2013-08-17 11:52:00,95.2,47.8,29.39,West,279,5.0,8.0,20,0.00,,,0.00,meteohub,2013-08-17 18:52:00,
2013-08-17 11:57:00,94.5,47.1,29.39,SW,229,2.0,12.0,20,0.00,,,0.00,meteohub,2013-08-17 18:57:00,
2013-08-17 12:02:00,94.8,47.5,29.38,NW,313,6.0,12.0,20,0.00,,,0.00,meteohub,2013-08-17 19:02:00,
2013-08-17 12:07:00,94.6,46.0,29.39,NW,315,6.0,12.0,19,0.00,,,0.00,meteohub,2013-08-17 19:07:00,
2013-08-17 12:12:00,94.6,47.3,29.39,NW,321,9.0,15.0,20,0.00,,,0.00,meteohub,2013-08-17 19:12:00,
2013-08-17 12:17:00,95.0,46.2,29.37,North,5,3.0,15.0,19,0.00,,,0.00,meteohub,2013-08-17 19:17:00,
2013-08-17 12:22:00,95.7,46.9,29.37,NNW,346,1.0,15.0,19,0.00,,,0.00,meteohub,2013-08-17 19:22:00,
2013-08-17 12:27:00,96.3,44.4,29.37,WNW,300,7.0,15.0,17,0.00,,,0.00,meteohub,2013-08-17 19:27:00,
2013-08-17 12:32:00,95.7,45.5,29.36,WSW,247,5.0,11.0,18,0.00,,,0.00,meteohub,2013-08-17 19:32:00,
2013-08-17 12:37:00,95.7,45.5,29.36,WNW,298,15.0,15.0,18,0.00,,,0.00,meteohub,2013-08-17 19:37:00,
2013-08-17 12:42:00,95.4,45.1,29.36,WSW,250,4.0,11.0,18,0.00,,,0.00,meteohub,2013-08-17 19:42:00,
2013-08-17 12:47:00,95.4,43.7,29.36,West,279,7.0,11.0,17,0.00,,,0.00,meteohub,2013-08-17 19:47:00,
2013-08-17 12:52:00,95.9,44.1,29.36,WSW,254,5.0,15.0,17,0.00,,,0.00,meteohub,2013-08-17 19:52:00,
2013-08-17 12:57:00,96.3,44.4,29.35,SW,233,12.0,15.0,17,0.00,,,0.00,meteohub,2013-08-17 19:57:00,
2013-08-17 13:02:00,95.7,43.9,29.35,West,260,10.0,15.0,17,0.00,,,0.00,meteohub,2013-08-17 20:02:00,
2013-08-17 13:07:00,95.9,44.1,29.35,WNW,298,8.0,15.0,17,0.00,,,0.00,meteohub,2013-08-17 20:07:00,
2013-08-17 13:12:00,96.4,43.0,29.35,WNW,289,8.0,15.0,16,0.00,,,0.00,meteohub,2013-08-17 20:12:00,
2013-08-17 13:17:00,97.2,45.1,29.34,West,279,3.0,18.0,17,0.00,,,0.00,meteohub,2013-08-17 20:17:00,
2013-08-17 13:22:00,97.0,43.3,29.34,NW,305,9.0,18.0,16,0.00,,,0.00,meteohub,2013-08-17 20:22:00,
2013-08-17 13:28:00,97.2,45.1,29.34,NW,312,12.0,18.0,17,0.00,,,0.00,meteohub,2013-08-17 20:28:00,
2013-08-17 13:33:00,97.3,43.7,29.33,NNW,328,4.0,17.0,16,0.00,,,0.00,meteohub,2013-08-17 20:33:00,
2013-08-17 13:38:00,97.3,41.9,29.33,West,274,5.0,17.0,15,0.00,,,0.00,meteohub,2013-08-17 20:38:00,
2013-08-17 13:43:00,97.2,41.9,29.33,WNW,302,10.0,17.0,15,0.00,,,0.00,meteohub,2013-08-17 20:43:00,
2013-08-17 13:48:00,97.0,41.7,29.32,West,277,9.0,16.0,15,0.00,,,0.00,meteohub,2013-08-17 20:48:00,
2013-08-17 13:53:00,97.5,42.1,29.32,WNW,302,7.0,16.0,15,0.00,,,0.00,meteohub,2013-08-17 20:53:00,
2013-08-17 13:58:00,97.9,42.4,29.32,NW,307,10.0,16.0,15,0.00,,,0.00,meteohub,2013-08-17 20:58:00,
2013-08-17 14:03:00,98.1,40.8,29.31,WNW,284,15.0,17.0,14,0.00,,,0.00,meteohub,2013-08-17 21:03:00,
2013-08-17 14:08:00,97.5,40.3,29.32,NNW,344,8.0,17.0,14,0.00,,,0.00,meteohub,2013-08-17 21:08:00,
2013-08-17 14:13:00,97.5,40.3,29.32,NW,317,7.0,17.0,14,0.00,,,0.00,meteohub,2013-08-17 21:13:00,
2013-08-17 14:18:00,97.5,38.5,29.31,NW,323,6.0,20.0,13,0.00,,,0.00,meteohub,2013-08-17 21:18:00,
2013-08-17 14:23:00,98.1,38.8,29.30,WSW,253,10.0,20.0,13,0.00,,,0.00,meteohub,2013-08-17 21:23:00,
2013-08-17 14:28:00,98.1,38.8,29.30,NNW,341,10.0,17.0,13,0.00,,,0.00,meteohub,2013-08-17 21:28:00,
2013-08-17 14:33:00,98.1,38.8,29.30,WSW,242,7.0,17.0,13,0.00,,,0.00,meteohub,2013-08-17 21:33:00,
2013-08-17 14:38:00,98.6,39.2,29.29,NW,310,9.0,17.0,13,0.00,,,0.00,meteohub,2013-08-17 21:38:00,
2013-08-17 14:43:00,99.0,39.6,29.29,WNW,298,15.0,21.0,13,0.00,,,0.00,meteohub,2013-08-17 21:43:00,
2013-08-17 14:48:00,99.0,39.6,29.29,NW,321,4.0,21.0,13,0.00,,,0.00,meteohub,2013-08-17 21:48:00,
2013-08-17 14:53:00,98.8,37.4,29.29,NW,309,5.0,21.0,12,0.00,,,0.00,meteohub,2013-08-17 21:53:00,
2013-08-17 14:58:00,98.8,37.4,29.29,NNW,333,15.0,19.0,12,0.00,,,0.00,meteohub,2013-08-17 21:58:00,
2013-08-17 15:03:00,99.0,37.6,29.28,SW,236,5.0,19.0,12,0.00,,,0.00,meteohub,2013-08-17 22:03:00,
2013-08-17 15:08:00,99.1,37.6,29.28,West,269,4.0,19.0,12,0.00,,,0.00,meteohub,2013-08-17 22:08:00,
2013-08-17 15:13:00,99.0,35.2,29.28,West,279,13.0,20.0,11,0.00,,,0.00,meteohub,2013-08-17 22:13:00,
2013-08-17 15:18:00,98.4,37.0,29.27,West,279,12.0,20.0,12,0.00,,,0.00,meteohub,2013-08-17 22:18:00,
2013-08-17 15:23:00,98.4,34.9,29.27,West,259,10.0,23.0,11,0.00,,,0.00,meteohub,2013-08-17 22:23:00,
2013-08-17 15:28:00,98.4,34.9,29.27,WNW,294,5.0,23.0,11,0.00,,,0.00,meteohub,2013-08-17 22:28:00,
2013-08-17 15:33:00,98.4,37.0,29.26,SW,234,14.0,23.0,12,0.00,,,0.00,meteohub,2013-08-17 22:33:00,
2013-08-17 15:38:00,98.4,37.0,29.26,West,271,14.0,24.0,12,0.00,,,0.00,meteohub,2013-08-17 22:38:00,
2013-08-17 15:43:00,98.4,34.9,29.26,WNW,303,6.0,24.0,11,0.00,,,0.00,meteohub,2013-08-17 22:43:00,
2013-08-17 15:48:00,99.0,32.9,29.24,WSW,255,13.0,24.0,10,0.00,,,0.00,meteohub,2013-08-17 22:48:00,
2013-08-17 15:53:00,98.4,34.9,29.25,NW,315,11.0,23.0,11,0.00,,,0.00,meteohub,2013-08-17 22:53:00,
2013-08-17 15:58:00,98.4,34.9,29.25,SW,226,22.0,23.0,11,0.00,,,0.00,meteohub,2013-08-17 22:58:00,
2013-08-17 16:03:00,98.8,35.2,29.24,SW,223,11.0,23.0,11,0.00,,,0.00,meteohub,2013-08-17 23:03:00,
2013-08-17 16:08:00,99.3,33.3,29.24,SW,225,11.0,23.0,10,0.00,,,0.00,meteohub,2013-08-17 23:08:00,
2013-08-17 16:14:00,99.5,33.3,29.24,WSW,241,19.0,26.0,10,0.00,,,0.00,meteohub,2013-08-17 23:14:00,
2013-08-17 16:19:00,99.3,33.3,29.24,WSW,252,5.0,26.0,10,0.00,,,0.00,meteohub,2013-08-17 23:19:00,
2013-08-17 16:24:00,99.5,35.8,29.24,SW,232,8.0,22.0,11,0.00,,,0.00,meteohub,2013-08-17 23:24:00,
2013-08-17 16:29:00,99.0,35.2,29.24,WSW,252,7.0,22.0,11,0.00,,,0.00,meteohub,2013-08-17 23:29:00,
2013-08-17 16:34:00,99.3,33.3,29.23,SW,219,12.0,22.0,10,0.00,,,0.00,meteohub,2013-08-17 23:34:00,
2013-08-17 16:39:00,99.3,33.3,29.23,SSW,213,7.0,21.0,10,0.00,,,0.00,meteohub,2013-08-17 23:39:00,
2013-08-17 16:44:00,99.9,30.9,29.23,SSW,205,13.0,21.0,9,0.00,,,0.00,meteohub,2013-08-17 23:44:00,
2013-08-17 16:49:00,99.7,30.9,29.23,WSW,237,11.0,21.0,9,0.00,,,0.00,meteohub,2013-08-17 23:49:00,
2013-08-17 16:54:00,99.3,27.7,29.23,SW,231,11.0,17.0,8,0.00,,,0.00,meteohub,2013-08-17 23:54:00,
2013-08-17 16:59:00,99.1,30.4,29.23,SW,227,11.0,17.0,9,0.00,,,0.00,meteohub,2013-08-17 23:59:00,
2013-08-17 17:04:00,99.3,24.4,29.23,SSW,213,7.0,17.0,7,0.00,,,0.00,meteohub,2013-08-18 00:04:00,
2013-08-17 17:09:00,98.8,24.1,29.24,WSW,255,8.0,17.0,7,0.00,,,0.00,meteohub,2013-08-18 00:09:00,
2013-08-17 17:14:00,98.4,29.8,29.24,SW,225,15.0,18.0,9,0.00,,,0.00,meteohub,2013-08-18 00:14:00,
2013-08-17 17:19:00,97.9,34.5,29.24,WNW,300,2.0,18.0,11,0.00,,,0.00,meteohub,2013-08-18 00:19:00,
2013-08-17 17:24:00,97.3,34.0,29.25,West,261,4.0,19.0,11,0.00,,,0.00,meteohub,2013-08-18 00:24:00,
2013-08-17 17:29:00,97.0,33.8,29.25,West,269,5.0,19.0,11,0.00,,,0.00,meteohub,2013-08-18 00:29:00,
2013-08-17 17:34:00,96.6,35.8,29.24,SW,232,9.0,19.0,12,0.00,,,0.00,meteohub,2013-08-18 00:34:00,
2013-08-17 17:39:00,96.4,35.6,29.25,WNW,292,15.0,21.0,12,0.00,,,0.00,meteohub,2013-08-18 00:39:00,
2013-08-17 17:44:00,96.4,33.4,29.25,WSW,258,7.0,21.0,11,0.00,,,0.00,meteohub,2013-08-18 00:44:00,
2013-08-17 17:49:00,96.1,35.2,29.25,WNW,294,8.0,21.0,12,0.00,,,0.00,meteohub,2013-08-18 00:49:00,
2013-08-17 17:54:00,95.9,35.1,29.25,West,281,12.0,21.0,12,0.00,,,0.00,meteohub,2013-08-18 00:54:00,
2013-08-17 17:59:00,95.9,35.1,29.25,WSW,255,10.0,21.0,12,0.00,,,0.00,meteohub,2013-08-18 00:59:00,
2013-08-17 18:04:00,95.7,35.1,29.24,WNW,292,13.0,21.0,12,0.00,,,0.00,meteohub,2013-08-18 01:04:00,
2013-08-17 18:09:00,95.4,34.7,29.24,West,278,17.0,21.0,12,0.00,,,0.00,meteohub,2013-08-18 01:09:00,
2013-08-17 18:14:00,95.4,32.5,29.24,WSW,251,13.0,22.0,11,0.00,,,0.00,meteohub,2013-08-18 01:14:00,
2013-08-17 18:19:00,95.2,32.4,29.25,SW,236,9.0,22.0,11,0.00,,,0.00,meteohub,2013-08-18 01:19:00,
2013-08-17 18:24:00,94.8,32.2,29.25,SW,234,9.0,22.0,11,0.00,,,0.00,meteohub,2013-08-18 01:24:00,
2013-08-17 18:29:00,94.6,32.0,29.26,West,259,3.0,22.0,11,0.00,,,0.00,meteohub,2013-08-18 01:29:00,
2013-08-17 18:34:00,94.3,29.3,29.26,WSW,242,6.0,20.0,10,0.00,,,0.00,meteohub,2013-08-18 01:34:00,
2013-08-17 18:39:00,93.9,29.1,29.26,WSW,248,11.0,20.0,10,0.00,,,0.00,meteohub,2013-08-18 01:39:00,
2013-08-17 18:44:00,93.7,28.9,29.27,WSW,242,8.0,20.0,10,0.00,,,0.00,meteohub,2013-08-18 01:44:00,
2013-08-17 18:49:00,93.6,35.4,29.27,SW,234,13.0,20.0,13,0.00,,,0.00,meteohub,2013-08-18 01:49:00,
2013-08-17 18:54:00,92.1,37.8,29.28,WSW,258,6.0,18.0,15,0.00,,,0.00,meteohub,2013-08-18 01:54:00,
2013-08-17 18:59:00,91.2,37.0,29.29,West,268,4.0,18.0,15,0.00,,,0.00,meteohub,2013-08-18 01:59:00,
2013-08-17 19:04:00,90.7,38.3,29.29,West,270,6.0,18.0,16,0.00,,,0.00,meteohub,2013-08-18 02:04:00,
2013-08-17 19:09:00,90.1,39.4,29.29,WNW,288,9.0,18.0,17,0.00,,,0.00,meteohub,2013-08-18 02:09:00,
2013-08-17 19:14:00,89.2,41.5,29.31,WNW,287,7.0,16.0,19,0.00,,,0.00,meteohub,2013-08-18 02:14:00,
2013-08-17 19:19:00,88.2,42.1,29.31,NW,308,6.0,16.0,20,0.00,,,0.00,meteohub,2013-08-18 02:19:00,
2013-08-17 19:24:00,87.4,41.4,29.32,West,262,8.0,16.0,20,0.00,,,0.00,meteohub,2013-08-18 02:24:00,
2013-08-17 19:29:00,86.7,42.1,29.32,WSW,251,6.0,16.0,21,0.00,,,0.00,meteohub,2013-08-18 02:29:00,
2013-08-17 19:35:00,86.4,41.9,29.33,SW,233,10.0,16.0,21,0.00,,,0.00,meteohub,2013-08-18 02:35:00,
2013-08-17 19:40:00,85.6,42.4,29.33,WSW,244,7.0,21.0,22,0.00,,,0.00,meteohub,2013-08-18 02:40:00,
2013-08-17 19:45:00,85.3,42.1,29.33,WSW,239,11.0,21.0,22,0.00,,,0.00,meteohub,2013-08-18 02:45:00,
2013-08-17 19:50:00,84.7,41.7,29.34,WSW,244,9.0,20.0,22,0.00,,,0.00,meteohub,2013-08-18 02:50:00,
2013-08-17 19:55:00,84.4,42.6,29.34,WNW,291,12.0,20.0,23,0.00,,,0.00,meteohub,2013-08-18 02:55:00,
2013-08-17 20:00:00,83.8,43.2,29.34,WSW,248,9.0,20.0,24,0.00,,,0.00,meteohub,2013-08-18 03:00:00,
2013-08-17 20:05:00,83.7,43.0,29.34,NW,315,12.0,18.0,24,0.00,,,0.00,meteohub,2013-08-18 03:05:00,
2013-08-17 20:10:00,83.1,42.6,29.34,West,263,12.0,18.0,24,0.00,,,0.00,meteohub,2013-08-18 03:10:00,
2013-08-17 20:15:00,82.9,43.5,29.34,WSW,241,11.0,18.0,25,0.00,,,0.00,meteohub,2013-08-18 03:15:00,
2013-08-17 20:20:00,82.6,43.2,29.34,SW,217,4.0,20.0,25,0.00,,,0.00,meteohub,2013-08-18 03:20:00,
2013-08-17 20:25:00,82.2,43.9,29.35,WSW,253,16.0,20.0,26,0.00,,,0.00,meteohub,2013-08-18 03:25:00,
2013-08-17 20:30:00,82.0,43.7,29.36,NW,309,5.0,20.0,26,0.00,,,0.00,meteohub,2013-08-18 03:30:00,
2013-08-17 20:35:00,81.7,43.5,29.36,WSW,252,13.0,21.0,26,0.00,,,0.00,meteohub,2013-08-18 03:35:00,
2013-08-17 20:40:00,81.5,43.3,29.36,SW,230,11.0,21.0,26,0.00,,,0.00,meteohub,2013-08-18 03:40:00,
2013-08-17 20:45:00,81.3,43.2,29.37,WSW,244,8.0,21.0,26,0.00,,,0.00,meteohub,2013-08-18 03:45:00,
2013-08-17 20:50:00,81.1,43.0,29.37,WSW,240,11.0,20.0,26,0.00,,,0.00,meteohub,2013-08-18 03:50:00,
2013-08-17 20:55:00,81.0,43.9,29.37,West,275,5.0,20.0,27,0.00,,,0.00,meteohub,2013-08-18 03:55:00,
2013-08-17 21:00:00,80.8,43.7,29.37,WSW,239,11.0,20.0,27,0.00,,,0.00,meteohub,2013-08-18 04:00:00,
2013-08-17 21:01:00,80.8,43.7,29.37,WSW,238,6.0,19.0,27,0.00,,,0.00,meteohub,2013-08-18 04:01:00,
2013-08-17 21:06:00,80.4,43.3,29.38,WSW,240,10.0,19.0,27,0.00,,,0.00,meteohub,2013-08-18 04:06:00,
2013-08-17 21:11:00,80.4,43.3,29.38,WSW,258,9.0,19.0,27,0.00,,,0.00,meteohub,2013-08-18 04:11:00,
2013-08-17 21:16:00,80.2,43.2,29.38,WSW,246,7.0,19.0,27,0.00,,,0.00,meteohub,2013-08-18 04:16:00,
2013-08-17 21:21:00,80.2,42.3,29.38,WSW,246,8.0,20.0,26,0.00,,,0.00,meteohub,2013-08-18 04:21:00,
2013-08-17 21:26:00,80.2,42.3,29.38,West,261,8.0,20.0,26,0.00,,,0.00,meteohub,2013-08-18 04:26:00,
2013-08-17 21:31:00,80.2,42.3,29.38,SW,229,6.0,16.0,26,0.00,,,0.00,meteohub,2013-08-18 04:31:00,
2013-08-17 21:36:00,80.1,41.0,29.38,SW,229,5.0,16.0,25,0.00,,,0.00,meteohub,2013-08-18 04:36:00,
2013-08-17 21:41:00,80.2,40.1,29.38,SW,234,2.0,16.0,24,0.00,,,0.00,meteohub,2013-08-18 04:41:00,
2013-08-17 21:46:00,80.2,39.0,29.39,SW,234,1.0,16.0,23,0.00,,,0.00,meteohub,2013-08-18 04:46:00,
2013-08-17 21:51:00,80.2,39.0,29.39,WSW,242,6.0,10.0,23,0.00,,,0.00,meteohub,2013-08-18 04:51:00,
2013-08-17 21:56:00,80.2,37.9,29.39,SW,228,4.0,10.0,22,0.00,,,0.00,meteohub,2013-08-18 04:56:00,
2013-08-17 22:01:00,80.2,37.9,29.39,SW,236,4.0,8.0,22,0.00,,,0.00,meteohub,2013-08-18 05:01:00,
2013-08-17 22:06:00,80.1,38.8,29.39,ENE,62,3.0,8.0,23,0.00,,,0.00,meteohub,2013-08-18 05:06:00,
2013-08-17 22:11:00,79.5,36.1,29.39,ESE,106,1.0,8.0,21,0.00,,,0.00,meteohub,2013-08-18 05:11:00,
2013-08-17 22:17:00,79.3,34.7,29.41,ESE,106,0.0,8.0,20,0.00,,,0.00,meteohub,2013-08-18 05:17:00,
2013-08-17 22:22:00,79.2,37.0,29.41,ESE,106,1.0,8.0,22,0.00,,,0.00,meteohub,2013-08-18 05:22:00,
2013-08-17 22:27:00,79.0,40.1,29.41,ESE,106,0.0,8.0,25,0.00,,,0.00,meteohub,2013-08-18 05:27:00,
2013-08-17 22:32:00,78.4,40.6,29.41,ESE,106,0.0,3.0,26,0.00,,,0.00,meteohub,2013-08-18 05:32:00,
2013-08-17 22:37:00,77.7,41.0,29.42,ESE,106,1.0,3.0,27,0.00,,,0.00,meteohub,2013-08-18 05:37:00,
2013-08-17 22:42:00,77.2,41.5,29.42,ESE,106,0.0,3.0,28,0.00,,,0.00,meteohub,2013-08-18 05:42:00,
2013-08-17 22:47:00,76.6,41.2,29.42,ESE,106,0.0,3.0,28,0.00,,,0.00,meteohub,2013-08-18 05:47:00,
2013-08-17 22:52:00,76.3,41.7,29.42,ESE,106,2.0,3.0,29,0.00,,,0.00,meteohub,2013-08-18 05:52:00,
2013-08-17 22:57:00,75.9,41.4,29.43,ESE,106,0.0,3.0,29,0.00,,,0.00,meteohub,2013-08-18 05:57:00,
2013-08-17 23:02:00,75.9,41.4,29.42,ESE,106,2.0,3.0,29,0.00,,,0.00,meteohub,2013-08-18 06:02:00,
2013-08-17 23:07:00,75.9,41.4,29.42,ESE,106,0.0,3.0,29,0.00,,,0.00,meteohub,2013-08-18 06:07:00,
2013-08-17 23:12:00,75.7,42.1,29.42,ESE,106,1.0,3.0,30,0.00,,,0.00,meteohub,2013-08-18 06:12:00,
2013-08-17 23:17:00,75.7,42.1,29.42,ESE,106,1.0,3.0,30,0.00,,,0.00,meteohub,2013-08-18 06:17:00,
2013-08-17 23:22:00,75.4,41.7,29.43,ESE,106,0.0,3.0,30,0.00,,,0.00,meteohub,2013-08-18 06:22:00,
2013-08-17 23:27:00,74.8,42.3,29.43,ESE,106,0.0,3.0,31,0.00,,,0.00,meteohub,2013-08-18 06:27:00,
2013-08-17 23:32:00,73.9,41.4,29.44,ESE,106,0.0,2.0,31,0.00,,,0.00,meteohub,2013-08-18 06:32:00,
2013-08-17 23:37:00,73.8,41.2,29.44,ESE,106,0.0,2.0,31,0.00,,,0.00,meteohub,2013-08-18 06:37:00,
2013-08-17 23:42:00,73.6,41.9,29.44,ESE,106,0.0,2.0,32,0.00,,,0.00,meteohub,2013-08-18 06:42:00,
2013-08-17 23:47:00,73.2,41.5,29.44,ESE,106,0.0,2.0,32,0.00,,,0.00,meteohub,2013-08-18 06:47:00,
2013-08-17 23:52:00,73.0,42.3,29.44,ESE,106,0.0,0.0,33,0.00,,,0.00,meteohub,2013-08-18 06:52:00,
2013-08-17 23:57:00,72.9,42.1,29.44,ESE,106,0.0,0.0,33,0.00,,,0.00,meteohub,2013-08-18 06:57:00,